Location: Gleizolles
(44.4833°N, 6.7667°E)
Time: 16:39:15
(UTC+00:00)

Transit 2A - Pass Details

Date: 27 June 2024
Orbit: 591 x 960 km, 66.7° (Epoch: 16 July)

Event Time Altitude Azimuth Distance (km) Brightness Sun altitude
Rises 22:48:08 0° 323° (NW) 3,567 10.6 -21.4°
Reaches altitude 10° 22:50:43 10° 317° (NW) 2,653 9.6 -21.5°
Maximum altitude 22:56:37 46° 247° (WSW) 1,272 7.0 -21.6°
Enters shadow 22:58:32 36° 204° (SSW) 1,481 7.0 -21.7°
